[[{"header":{"parameterUnit":"m.s-1","parameterCategory":1,"la1":30.2991,"la2":30.254,"lo1":-89.0895,"lo2":-89.0444,"dy":0.0017,"dx":0.0017,"nx":28,"ny":28,"refTime":"2024-06-02T21:00:00:Z","depth":0,"parameterNumber":2,"parameterNumberName":"U-component_of_WINDS"},"data":[0,0,0,0,0,0,0,0,0,0,0,0,0,0,0,0,0,0,0,0,0,0,0,0,0,0,0,0,0,0,0,0,0,0,0,0,0,0,0,0,0,0,0,0,0,0,0,0,0,0,0,0,0,0,0,0,0,0,0.488,0.488,0,0.4871,0.4871,0.4871,0.4855,0.4854,0.4854,0.4854,0.4845,0.4845,0.4845,0,0,0,0,0,0,0,0,0,0,0,0,0,0.4881,0.4881,0.488,0.488,0.488,0.4871,0.4871,0.4871,0.4855,0.4854,0.4854,0.4853,0.4845,0.4845,0.4845,0,0,0,0,0,0,0,0,0,0,0,0,0,0.4877,0.4881,0.488,0.487,0.487,0.4871,0.4871,0.4871,0.4855,0.4854,0.4854,0.4853,0.4845,0.4845,0.4845,0.4855,0,0,0.4845,0.4845,0,0,0,0,0,0,0,0,0.4878,0.4877,0.4872,0.4871,0.487,0.4863,0.4868,0.4866,0.4855,0.486,0.4854,0.4853,0.4851,0.4851,0.485,0.4855,0.4854,0.4845,0.4845,0.4845,0.4845,0,0,0,0,0,0,0,0.4878,0.4878,0.4876,0.4872,0.4871,0.4866,0.4865,0.4868,0.4859,0.486,0.4859,0.4858,0.4851,0.485,0.485,0.4854,0.4845,0.4845,0.4846,0.4846,0.4865,0.4865,0,0,0,0,0,0,0.488,0.4878,0.4877,0.4876,0.4873,0.4867,0.4865,0.4866,0.4859,0.4857,0.4858,0.4857,0.485,0.485,0.485,0.486,0.4845,0.4846,0.4846,0.4864,0.4865,0.4865,0,0,0,0,0,0,0.488,0.488,0.4877,0.4877,0.4876,0.4867,0.4868,0.4866,0.4866,0.4857,0.4856,0.4859,0.485,0.485,0.4853,0.4859,0.4846,0.4846,0.4864,0.4864,0.4865,0.4881,0,0,0,0,0,0,0.488,0.488,0.4884,0.4877,0.4876,0.4881,0.4868,0.4866,0.4866,0.4864,0.4858,0.4857,0.485,0.4853,0.4854,0.4859,0.4846,0.4863,0.4864,0.4865,0.488,0.4882,0.4884,0,0,0,0,0,0.488,0.4889,0.4884,0.4884,0.4881,0.4882,0.4881,0.4873,0.4866,0.487,0.4864,0.4857,0.4859,0.4854,0.4854,0.486,0.4863,0.4864,0.4865,0.4879,0.4882,0.4884,0,0,0,0,0,0,0.4898,0.4888,0.4883,0.489,0.4887,0.4879,0.4884,0.4876,0.4875,0.4874,0.4863,0.4862,0.4867,0.4864,0.4859,0.4868,0.4859,0.486,0.487,0.4873,0.4875,0.4875,0.4846,0,0,0,0,0,0.4903,0.4904,0.4896,0.4903,0.4901,0.4893,0.4893,0.4887,0.4883,0.4881,0.4876,0.4873,0.4872,0.4872,0.4872,0.4879,0.4877,0.4883,0.4885,0.4887,0.4888,0.489,0.4892,0.4868,0.4868,0.4868,0,0,0.4913,0.4907,0.4909,0.4906,0.4903,0.4904,0.4892,0.4894,0.4895,0.4882,0.4885,0.4881,0.4876,0.4881,0.4883,0.4879,0.4894,0.4888,0.489,0.4889,0.4891,0.4893,0.4895,0.4869,0.4869,0.4869,0,0,0.4931,0.4928,0.4933,0.4929,0.4924,0.4918,0.4919,0.4912,0.4909,0.4912,0.4902,0.4902,0.4902,0.4898,0.4897,0.4912,0.4904,0.4912,0.4923,0.4925,0.4927,0.4928,0.4933,0.4934,0.4913,0.4913,0.4913,0,0.4944,0.4946,0.4936,0.4939,0.4937,0.4925,0.4929,0.4926,0.4922,0.492,0.4915,0.4914,0.491,0.4913,0.4917,0.4916,0.4917,0.4913,0.4927,0.4929,0.493,0.4934,0.4936,0.4914,0.4914,0.4914,0.4914,0,0.4961,0.4962,0.4967,0.4962,0.4961,0.4964,0.4955,0.4955,0.4948,0.4942,0.4944,0.4939,0.4936,0.4937,0.4931,0.4939,0.4936,0.4929,0.492,0.4933,0.4937,0.4938,0.4915,0.4915,0.4915,0.4915,0,0,0.4992,0.498,0.4982,0.4978,0.4971,0.4972,0.4974,0.4971,0.497,0.4967,0.4968,0.4967,0.496,0.4958,0.4952,0.4954,0.4964,0.4947,0.4946,0.4949,0.4971,0.4976,0.4978,0.4959,0.496,0.496,0.4972,0,0.5008,0.5011,0.5002,0.5007,0.5007,0.4995,0.4997,0.4992,0.4986,0.4985,0.4979,0.4978,0.497,0.4968,0.497,0.4963,0.4969,0.4962,0.4959,0.4959,0.496,0.498,0.4985,0.4997,0.4973,0.4973,0.4973,0,0.5028,0.5024,0.5029,0.502,0.502,0.5022,0.5017,0.5016,0.501,0.5006,0.5003,0.4995,0.4995,0.4987,0.4987,0.4982,0.4981,0.4977,0.4977,0.4976,0.4967,0.4979,0.5,0.5002,0.4976,0.4975,0.4975,0,0.5048,0.5045,0.5047,0.5045,0.5034,0.5035,0.5031,0.5025,0.5023,0.5019,0.5017,0.5014,0.5011,0.5008,0.4999,0.4994,0.5,0.4991,0.4996,0.4996,0.4997,0.4997,0.5018,0.4997,0.4997,0.4997,0.4997,0,0.5066,0.507,0.5055,0.5057,0.506,0.5049,0.5052,0.5046,0.504,0.504,0.5029,0.5029,0.5017,0.5015,0.5008,0.5008,0.5007,0.5003,0.5001,0.5004,0.5004,0.5002,0.5001,0.4998,0.4998,0.4998,0.4998,0,0.509,0.508,0.5081,0.5071,0.5068,0.5071,0.5062,0.5062,0.5055,0.5055,0.5054,0.5043,0.504,0.503,0.5025,0.502,0.5023,0.5019,0.5025,0.5023,0.5028,0.5027,0.5048,0.5049,0.5029,0.5029,0.5029,0,0.5102,0.5104,0.5093,0.5092,0.5088,0.5086,0.5084,0.5073,0.5071,0.5063,0.5064,0.506,0.5056,0.5052,0.5043,0.5039,0.5035,0.5042,0.5034,0.5036,0.5034,0.5034,0.5033,0.5044,0.5044,0.5045,0.5045,0,0.5124,0.5119,0.5116,0.5111,0.5108,0.5104,0.5099,0.5099,0.5086,0.5084,0.5081,0.5078,0.5072,0.5068,0.5062,0.5057,0.5048,0.5047,0.5048,0.505,0.5053,0.5051,0.5029,0.5047,0.5047,0.5046,0.5046,0.5046,0.5141,0.5142,0.5134,0.5131,0.5126,0.5121,0.512,0.5113,0.511,0.5104,0.5097,0.5094,0.5087,0.5077,0.5073,0.507,0.5066,0.5067,0.5067,0.5068,0.5068,0.5054,0.5069,0.5069,0.5069,0.5069,0.5069,0,0.5162,0.5156,0.5153,0.5146,0.5143,0.5135,0.5129,0.5127,0.5124,0.5118,0.5114,0.5109,0.5105,0.5095,0.509,0.5089,0.5085,0.5088,0.5087,0.5086,0.5073,0.5073,0.5091,0.5091,0.5091,0.5091,0.5091,0.5091,0.5173,0.5173,0.5167,0.5164,0.5158,0.5154,0.5151,0.5146,0.5141,0.5136,0.5132,0.5126,0.5117,0.5111,0.5106,0.5103,0.5102,0.5106,0.5102,0.5089,0.5087,0.5085,0.5085,0.5105,0.5106,0.5115,0.5115,0.5115]},{"header":{"parameterUnit":"m.s-1","parameterCategory":1,"la1":30.2991,"la2":30.254,"lo1":-89.0895,"lo2":-89.0444,"dy":0.0017,"dx":0.0017,"nx":28,"ny":28,"refTime":"2024-06-02T21:00:00:Z","depth":0,"parameterNumber":3,"parameterNumberName":"V-component_of_WINDS"},"data":[0,0,0,0,0,0,0,0,0,0,0,0,0,0,0,0,0,0,0,0,0,0,0,0,0,0,0,0,0,0,0,0,0,0,0,0,0,0,0,0,0,0,0,0,0,0,0,0,0,0,0,0,0,0,0,0,0,0,3.4399,3.4399,0,3.4391,3.4391,3.4391,3.4332,3.4331,3.4329,3.4328,3.4319,3.432,3.4321,0,0,0,0,0,0,0,0,0,0,0,0,0,3.4365,3.4366,3.4399,3.4399,3.4399,3.4391,3.4391,3.4391,3.4332,3.4331,3.4329,3.4327,3.4319,3.432,3.4322,0,0,0,0,0,0,0,0,0,0,0,0,0,3.4371,3.4366,3.44,3.4369,3.4366,3.4391,3.4391,3.4391,3.4333,3.4331,3.4328,3.4326,3.4318,3.432,3.4322,3.4375,0,0,3.4327,3.4328,0,0,0,0,0,0,0,0,3.437,3.4372,3.4374,3.4371,3.4368,3.436,3.4375,3.4385,3.4333,3.4345,3.4328,3.4325,3.4335,3.4335,3.4338,3.4375,3.4374,3.4327,3.4328,3.4329,3.4329,0,0,0,0,0,0,0,3.437,3.4372,3.4396,3.4374,3.437,3.4356,3.4354,3.4377,3.4352,3.4344,3.434,3.434,3.4333,3.4337,3.4337,3.4374,3.4327,3.4328,3.4329,3.433,3.4454,3.4456,0,0,0,0,0,0,3.4374,3.4372,3.4396,3.4396,3.4364,3.4358,3.4356,3.4365,3.4352,3.4348,3.4342,3.4337,3.4335,3.4335,3.4337,3.4398,3.4329,3.433,3.4331,3.4452,3.4454,3.4457,0,0,0,0,0,0,3.4373,3.4377,3.4397,3.4383,3.4384,3.4361,3.4371,3.4366,3.437,3.435,3.4345,3.435,3.4333,3.4335,3.4366,3.4397,3.4331,3.4332,3.4449,3.4452,3.4456,3.4522,0,0,0,0,0,0,3.4373,3.4377,3.4397,3.4384,3.4385,3.4426,3.4373,3.4367,3.4373,3.4367,3.4356,3.4353,3.4332,3.4364,3.4368,3.4398,3.4334,3.4446,3.445,3.4454,3.4517,3.4527,3.4536,0,0,0,0,0,3.4372,3.4416,3.4398,3.4401,3.441,3.4428,3.4429,3.4404,3.4376,3.4395,3.4383,3.4353,3.4393,3.4367,3.4371,3.4403,3.4444,3.4449,3.4454,3.4512,3.4525,3.4535,0,0,0,0,0,0,3.4433,3.4414,3.4394,3.4435,3.4434,3.4418,3.4442,3.4418,3.4424,3.4418,3.4387,3.4385,3.4421,3.4415,3.4387,3.4454,3.4413,3.442,3.4456,3.4468,3.4477,3.4478,3.4335,0,0,0,0,0,3.4452,3.4468,3.445,3.4488,3.4489,3.4466,3.4473,3.4453,3.4451,3.445,3.4439,3.4438,3.445,3.4459,3.4469,3.4515,3.4512,3.4539,3.4549,3.4557,3.4562,3.4586,3.4598,3.4474,3.4474,3.4474,0,0,3.449,3.4481,3.4494,3.45,3.4497,3.4515,3.4466,3.4487,3.4499,3.4453,3.4482,3.4474,3.447,3.451,3.4527,3.4506,3.4596,3.4563,3.457,3.4571,3.4593,3.4605,3.4615,3.4477,3.4477,3.4476,0,0,3.4569,3.4564,3.4595,3.4593,3.4588,3.4573,3.458,3.4568,3.4562,3.459,3.4556,3.457,3.4592,3.4591,3.4593,3.4671,3.4644,3.4676,3.4726,3.4749,3.4759,3.4768,3.4796,3.4806,3.4681,3.4681,3.4682,0,3.4617,3.4642,3.4614,3.4637,3.4641,3.46,3.4631,3.463,3.463,3.4633,3.461,3.4636,3.4631,3.4669,3.4688,3.4692,3.4699,3.4676,3.476,3.4768,3.4776,3.4802,3.4813,3.4685,3.4685,3.4684,3.4684,0,3.4701,3.4719,3.4745,3.4745,3.4752,3.4779,3.4756,3.4766,3.4746,3.4733,3.4763,3.4755,3.4762,3.477,3.4751,3.4806,3.4793,3.4766,3.4725,3.4792,3.4816,3.4826,3.4691,3.4689,3.4688,3.4687,0,0,3.4819,3.4803,3.4813,3.4812,3.4804,3.4818,3.4843,3.4851,3.486,3.4861,3.4881,3.4901,3.4875,3.4878,3.4858,3.4879,3.4941,3.4849,3.4848,3.4866,3.5001,3.5022,3.5034,3.4924,3.4925,3.4927,3.5002,0,3.4894,3.4936,3.4912,3.4957,3.4974,3.4935,3.4957,3.4954,3.4943,3.4955,3.4943,3.4957,3.4922,3.4923,3.4942,3.493,3.4968,3.4924,3.4942,3.4943,3.4944,3.5047,3.5069,3.514,3.5011,3.5013,3.5014,0,3.4987,3.4992,3.504,3.5028,3.5034,3.5055,3.5059,3.5072,3.5068,3.5058,3.5061,3.5037,3.506,3.502,3.5053,3.5023,3.5029,3.5024,3.5027,3.5027,3.4983,3.505,3.5162,3.5173,3.5028,3.5027,3.5026,0,3.5068,3.5086,3.5117,3.5118,3.5106,3.5121,3.5116,3.5111,3.5117,3.5121,3.5125,3.5132,3.5136,3.5142,3.512,3.5092,3.5156,3.5113,3.5148,3.5149,3.5163,3.5162,3.5277,3.5167,3.5167,3.5167,3.5167,0,3.5155,3.5185,3.5153,3.5172,3.5205,3.5177,3.521,3.5202,3.5197,3.5213,3.518,3.5197,3.5166,3.5179,3.5162,3.5192,3.5194,3.5187,3.5182,3.519,3.5191,3.5193,3.5188,3.517,3.5169,3.5169,3.5168,0,3.525,3.523,3.5261,3.5247,3.5244,3.5269,3.5257,3.5273,3.526,3.5281,3.5285,3.5263,3.5277,3.5256,3.5267,3.5256,3.5297,3.5284,3.5298,3.5294,3.533,3.5327,3.5451,3.5465,3.5346,3.5347,3.5348,0,3.5307,3.5329,3.5318,3.5326,3.5324,3.5338,3.5344,3.5317,3.5325,3.5322,3.534,3.5351,3.5358,3.5382,3.5368,3.5377,3.5364,3.5407,3.5365,3.5372,3.5365,3.5363,3.5366,3.5415,3.5417,3.5418,3.5419,0,3.5409,3.5398,3.5408,3.5414,3.5422,3.5426,3.5428,3.5437,3.5408,3.5419,3.5432,3.5438,3.545,3.5461,3.5466,3.5462,3.5436,3.5432,3.544,3.5449,3.5456,3.5452,3.5321,3.5429,3.5428,3.5427,3.5427,3.5426,3.5487,3.5505,3.5499,3.5512,3.551,3.5512,3.5527,3.5515,3.5526,3.5534,3.5517,3.5535,3.5531,3.5535,3.5533,3.5547,3.5528,3.5541,3.5544,3.5547,3.5553,3.5454,3.5548,3.5547,3.5547,3.5547,3.5547,0,3.5587,3.5582,3.5593,3.5596,3.5606,3.558,3.5581,3.559,3.5607,3.5605,3.5613,3.5629,3.564,3.5626,3.5635,3.5649,3.5637,3.5652,3.565,3.565,3.5569,3.5561,3.5661,3.5661,3.5661,3.5661,3.5661,3.5661,3.5641,3.567,3.5658,3.5687,3.5681,3.5698,3.57,3.5702,3.5701,3.572,3.5729,3.572,3.5714,3.5721,3.5731,3.5726,3.5731,3.575,3.5742,3.5667,3.5655,3.5645,3.5637,3.5752,3.5752,3.5821,3.5822,3.5823]}]]